Time+03,TemperatureF,Dew PointF,Humidity,Sea Level PressureIn,VisibilityMPH,Wind Direction,Wind SpeedMPH,Gust SpeedMPH,PrecipitationIn,Events,Conditions,WindDirDegrees,DateUTC
12:00 AM,84.2,71.6,66,29.86,-9999.0,NNW,6.9,-,N/A,,Clear,340,2011-10-17 21:00:00
12:30 AM,84.2,71.6,66,29.86,5.6,NNW,5.8,-,N/A,,Unknown,340,2011-10-17 21:30:00
1:00 AM,84.2,69.8,62,29.86,5.6,NW,6.9,-,N/A,,Unknown,310,2011-10-17 22:00:00
1:30 AM,84.2,69.8,62,29.86,5.0,WNW,6.9,-,N/A,,Unknown,300,2011-10-17 22:30:00
2:00 AM,84.2,71.6,66,29.86,5.0,Variable,2.3,-,N/A,,Unknown,0,2011-10-17 23:00:00
2:30 AM,82.4,71.6,70,29.86,5.0,NW,5.8,-,N/A,,Unknown,320,2011-10-17 23:30:00
3:00 AM,83,72,61,29.86,5,NW,11.2,,,,Haze,310,2011-10-18 00:00:00
3:00 AM,82.4,71.6,70,29.86,5.0,NW,5.8,-,N/A,,Unknown,310,2011-10-18 00:00:00
3:30 AM,82.4,73.4,74,29.86,5.0,NW,5.8,-,N/A,,Unknown,310,2011-10-18 00:30:00
4:00 AM,82.4,73.4,74,29.86,5.0,NW,5.8,-,N/A,,Unknown,310,2011-10-18 01:00:00
4:30 AM,82.4,75.2,79,29.86,5.0,NW,6.9,-,N/A,,Unknown,320,2011-10-18 01:30:00
5:00 AM,82.4,75.2,79,29.86,5.0,NW,8.1,-,N/A,,Unknown,310,2011-10-18 02:00:00
5:30 AM,82.4,75.2,79,29.89,4.3,NW,4.6,-,N/A,,Unknown,310,2011-10-18 02:30:00
6:00 AM,82.4,75.2,79,29.89,3.1,NW,5.8,-,N/A,,Haze,320,2011-10-18 03:00:00
6:30 AM,82.4,77.0,84,29.92,3.1,NW,3.5,-,N/A,,Haze,310,2011-10-18 03:30:00
7:00 AM,84.2,77.0,79,29.95,3.1,NW,4.6,-,N/A,,Haze,310,2011-10-18 04:00:00
7:30 AM,86.0,77.0,74,29.95,3.1,NW,4.6,-,N/A,,Haze,310,2011-10-18 04:30:00
8:00 AM,86.0,75.2,70,29.95,3.7,NW,4.6,-,N/A,,Unknown,310,2011-10-18 05:00:00
8:30 AM,87.8,73.4,62,29.95,3.7,NW,4.6,-,N/A,,Unknown,310,2011-10-18 05:30:00
9:00 AM,90,73,48,29.97,4,NNW,5.8,,,,Haze,340,2011-10-18 06:00:00
9:00 AM,89.6,73.4,59,29.95,4.3,NNW,5.8,-,N/A,,Unknown,340,2011-10-18 06:00:00
9:30 AM,91.4,71.6,52,29.95,5.0,North,4.6,-,N/A,,Unknown,360,2011-10-18 06:30:00
10:00 AM,91.4,71.6,52,29.95,5.0,North,5.8,-,N/A,,Unknown,350,2011-10-18 07:00:00
10:30 AM,93.2,68.0,44,29.95,-9999.0,North,8.1,-,N/A,,Clear,350,2011-10-18 07:30:00
11:00 AM,95.0,66.2,39,29.92,-9999.0,NNW,8.1,-,N/A,,Clear,330,2011-10-18 08:00:00
11:30 AM,95.0,66.2,39,29.92,-9999.0,NNW,8.1,-,N/A,,Clear,340,2011-10-18 08:30:00
12:00 PM,95.0,64.4,36,29.92,-9999.0,North,9.2,-,N/A,,Clear,360,2011-10-18 09:00:00
12:30 PM,96.8,53.6,23,29.89,-9999.0,North,9.2,-,N/A,,Clear,10,2011-10-18 09:30:00
1:00 PM,98.6,46.4,17,29.89,-9999.0,North,9.2,-,N/A,,Clear,360,2011-10-18 10:00:00
1:30 PM,100.4,44.6,15,29.89,-9999.0,North,9.2,-,N/A,,Clear,360,2011-10-18 10:30:00
2:00 PM,98.6,51.8,21,29.89,-9999.0,North,9.2,-,N/A,,Clear,10,2011-10-18 11:00:00
2:30 PM,96.8,62.6,32,29.89,-9999.0,North,9.2,-,N/A,,Clear,10,2011-10-18 11:30:00
3:00 PM,95,68,32,29.89,9,North,10.4,,,,,10,2011-10-18 12:00:00
3:00 PM,95.0,68.0,41,29.89,-9999.0,North,10.4,-,N/A,,Clear,10,2011-10-18 12:00:00
3:30 PM,93.2,69.8,46,29.89,-9999.0,North,10.4,-,N/A,,Clear,10,2011-10-18 12:30:00
4:00 PM,91.4,71.6,52,29.89,-9999.0,North,11.5,-,N/A,,Clear,10,2011-10-18 13:00:00
4:30 PM,91.4,69.8,49,29.89,-9999.0,North,10.4,-,N/A,,Clear,10,2011-10-18 13:30:00
5:00 PM,91.4,69.8,49,29.89,-9999.0,North,9.2,-,N/A,,Clear,10,2011-10-18 14:00:00
5:30 PM,89.6,73.4,59,29.89,-9999.0,North,9.2,-,N/A,,Clear,350,2011-10-18 14:30:00
6:00 PM,89.6,73.4,59,29.89,-9999.0,North,9.2,-,N/A,,Clear,360,2011-10-18 15:00:00
6:30 PM,87.8,75.2,66,29.89,-9999.0,North,8.1,-,N/A,,Clear,360,2011-10-18 15:30:00
7:00 PM,87.8,75.2,66,29.92,-9999.0,North,9.2,-,N/A,,Clear,360,2011-10-18 16:00:00
7:30 PM,87.8,73.4,62,29.92,-9999.0,North,8.1,-,N/A,,Clear,350,2011-10-18 16:30:00
8:00 PM,87.8,73.4,62,29.92,-9999.0,NNW,9.2,-,N/A,,Clear,340,2011-10-18 17:00:00
8:30 PM,86.0,73.4,66,29.92,-9999.0,NNW,10.4,-,N/A,,Clear,340,2011-10-18 17:30:00
9:00 PM,85,74,61,29.92,6,NNW,11.5,,,,,340,2011-10-18 18:00:00
9:00 PM,86.0,73.4,66,29.92,-9999.0,NNW,11.5,-,N/A,,Clear,340,2011-10-18 18:00:00
9:30 PM,86.0,71.6,62,29.92,-9999.0,NNW,9.2,-,N/A,,Clear,340,2011-10-18 18:30:00
10:30 PM,84.2,68.0,58,29.89,-9999.0,NNW,8.1,-,N/A,,Clear,340,2011-10-18 19:30:00
11:00 PM,86.0,66.2,51,29.89,-9999.0,NNW,8.1,-,N/A,,Clear,330,2011-10-18 20:00:00
11:30 PM,86.0,66.2,51,29.89,-9999.0,NNW,9.2,-,N/A,,Clear,340,2011-10-18 20:30:00